Location: 10033 Water Well
(34.0865°N, 106.8959°W)
Time: 16:51:07
(UTC+00:00)

MOS 1 Rocket - Pass Details

Date: 13 January 2026
Orbit: 608 x 815 km, 97.4° (Epoch: 11 February)

Event Time Altitude Azimuth Distance (km) Brightness Sun altitude
Rises 01:09:36 0° 178° (S) 3,323 7.0 -10.6°
Reaches altitude 10° 01:12:00 10° 182° (S) 2,394 6.3 -11.0°
Maximum altitude 01:17:14 57° 260° (W) 945 4.4 -12.1°
Drops below altitude 10° 01:22:23 10° 339° (NNW) 2,350 6.1 -13.1°
Sets 01:24:43 0° 344° (NNW) 3,257 6.8 -13.6°
